Location: Fornova de Taro
(44.7000°N, 10.1000°E)
Time: 03:11:46
(UTC+00:00)

GP-B - Pass Details

Date: 26 May 2022
Orbit: 630 x 634 km, 89.8° (Epoch: 26 June)

Event Time Altitude Azimuth Distance (km) Brightness Sun altitude
Rises 00:50:52 0° 356° (N) 2,938 7.6 -20.8°
Reaches altitude 10° 00:53:09 10° 351° (N) 2,025 6.5 -20.6°
Maximum altitude 00:57:26 50° 277° (W) 813 3.5 -20.3°
Enters shadow 00:58:13 44° 243° (WSW) 878 3.4 -20.2°
